Content
SEND FEEDBACK

Daily
Averages
Monthly
Summary
Canada

VANCOUVER, BRITISH COLUMBIA


Home > North America > Canada > British Columbia
Elevation: 7 feet     Latitude: 49 11N     Longitude: 123 10W

WEATHER
 
SELECT A DAY
Number of Records: 249,596;   Date Range: 5/15/97 - 8/20/14
 
SHARE

PRINT THIS DATA

[ ← Previous Day ]
WEATHER ALMANAC - FEBRUARY 7, 2013
[ Next Day → ]
[ °C ]   °F
Weather ElementAverageHighLow
Temperature42.2 °F48.2 °F (12:35 am)32 °F (9:35 pm)
Dewpoint35.6 °F39.2 °F (3:15 am)32 °F (3:35 pm)
Humidity78.2 %100 % (9:35 pm)57 % (3:35 pm)
Barometer29.97 in30.19 in (11:55 pm)29.71 in (12:35 am)
Wind Speed5.6 mph18.4 mph (1:35 am)
Wind Gust31.1 mph (2:15 am)
Weather ElementAverage
Visibility10 mi
Wind DirectionESE (105.4 °)

Weather ElementTotal
Precipitation---
Heating Degree Days24.9 (Base 65)
Averaged from 69 records on February 7, 2013
WEATHER CONDITIONS BREAKOUT
WIND DIRECTION BREAKOUT
WEATHER BY HOUR - FEBRUARY 7, 2013
[ °C ]   °F
Local TimeTemperatureDewpointHumidityBarometerVisibilityWind DirectionWind SpeedGust SpeedPrecipitationEventsConditions
12:35 AM48.2 °F37.4 °F66 %29.71 in10.0 miSSE (160°)10.4 mph21.9 mphPartly Cloudy
12:55 AM48.2 °F37.4 °F66 %29.71 in10.0 miSSE (160°)8.1 mph25.3 mphPartly Cloudy
1:15 AM48.2 °F37.4 °F66 %29.71 in10.0 miSSE (160°)12.7 mph23.0 mphMostly Cloudy
1:35 AM48.2 °F37.4 °F66 %29.71 in10.0 miSE (140°)18.4 mph28.8 mphOvercast
1:55 AM48.2 °F37.4 °F66 %29.71 in10.0 miSSE (150°)16.1 mph26.5 mphMostly Cloudy
2:15 AM46.4 °F37.4 °F71 %29.71 in10.0 miSSE (160°)17.3 mph31.1 mphClear
2:35 AM46.4 °F37.4 °F71 %29.72 in10.0 miSSE (160°)12.7 mph29.9 mphRainLight Rain
2:55 AM46.4 °F37.4 °F71 %29.73 in10.0 miSouth (170°)8.1 mphClear
3:15 AM44.6 °F39.2 °F81 %29.73 in10.0 miSouth (190°)12.7 mph24.2 mphScattered Clouds
3:35 AM44.6 °F37.4 °F76 %29.73 in10.0 miSouth (170°)8.1 mph19.6 mphPartly Cloudy
3:55 AM44.6 °F37.4 °F76 %29.74 in10.0 miSouth (180°)13.8 mph24.2 mphPartly Cloudy
4:15 AM44.6 °F37.4 °F76 %29.77 in10.0 miSouth (170°)10.4 mph27.6 mphMostly Cloudy
4:35 AM44.6 °F37.4 °F76 %29.79 in10.0 miSouth (180°)13.8 mph29.9 mphOvercast
4:55 AM44.6 °F37.4 °F76 %29.81 in10.0 miSouth (180°)12.7 mph24.2 mphOvercast
5:15 AM44.6 °F37.4 °F76 %29.83 in10.0 miSouth (180°)11.5 mph18.4 mphOvercast
5:35 AM44.6 °F37.4 °F76 %29.85 in10.0 miSouth (180°)11.5 mph23.0 mphOvercast
5:55 AM44.6 °F37.4 °F76 %29.86 in10.0 miSW (220°)6.9 mphOvercast
6:35 AM44.6 °F37.4 °F76 %29.89 in10.0 miCalmOvercast
6:55 AM42.8 °F37.4 °F81 %29.89 in10.0 miSouth (170°)3.5 mphMostly Cloudy
7:15 AM42.8 °F37.4 °F81 %29.90 in10.0 miSouth (180°)5.8 mphPartly Cloudy
7:35 AM41.0 °F37.4 °F87 %29.91 in10.0 miSouth (180°)4.6 mphPartly Cloudy
7:55 AM41.0 °F37.4 °F87 %29.92 in10.0 miSouth (180°)5.8 mphClear
8:15 AM41.0 °F35.6 °F81 %29.94 in10.0 miSouth (190°)8.1 mphPartly Cloudy
8:35 AM41.0 °F37.4 °F87 %29.95 in10.0 miSouth (180°)5.8 mphPartly Cloudy
8:55 AM41.0 °F37.4 °F87 %29.96 in10.0 miSouth (180°)5.8 mphScattered Clouds
9:15 AM42.8 °F37.4 °F81 %29.97 in10.0 miSouth (180°)5.8 mphOvercast
9:35 AM42.8 °F37.4 °F81 %29.97 in10.0 miSouth (190°)6.9 mphOvercast
9:55 AM42.8 °F37.4 °F81 %29.98 in10.0 miSSW (200°)6.9 mphOvercast
10:15 AM44.6 °F37.4 °F76 %29.99 in10.0 miSSW (200°)8.1 mphMostly Cloudy
10:35 AM42.8 °F37.4 °F81 %29.99 in10.0 miSouth (190°)8.1 mphClear
10:55 AM44.6 °F37.4 °F76 %30.00 in10.0 miSSW (200°)11.5 mphPartly Cloudy
11:15 AM44.6 °F37.4 °F76 %30.01 in10.0 miSSW (200°)10.4 mphScattered Clouds
11:35 AM44.6 °F39.2 °F81 %30.02 in10.0 miSSW (200°)9.2 mphScattered Clouds
11:55 AM44.6 °F37.4 °F76 %30.02 in10.0 miSouth (190°)9.2 mphMostly Cloudy
12:15 PM46.4 °F35.6 °F66 %30.02 in10.0 miSouth (170°)5.8 mphMostly Cloudy
12:35 PM46.4 °F35.6 °F66 %30.02 in10.0 miSouth (190°)9.2 mphMostly Cloudy
12:55 PM46.4 °F37.4 °F71 %30.02 in10.0 miSSW (200°)10.4 mphMostly Cloudy
1:15 PM46.4 °F37.4 °F71 %30.02 in10.0 miSSW (210°)9.2 mphPartly Cloudy
1:35 PM46.4 °F35.6 °F66 %30.02 in10.0 miSSW (200°)5.8 mphClear
1:55 PM46.4 °F35.6 °F66 %30.02 in10.0 miSouth (190°)3.5 mphClear
2:15 PM46.4 °F35.6 °F66 %30.02 in10.0 miCalmPartly Cloudy
2:35 PM46.4 °F33.8 °F62 %30.03 in10.0 miEast (80°)5.8 mphClear
2:55 PM46.4 °F35.6 °F66 %30.03 in10.0 miNE (50°)3.5 mphClear
3:15 PM46.4 °F33.8 °F62 %30.04 in10.0 miENE (60°)4.6 mphClear
3:35 PM46.4 °F32.0 °F57 %30.04 in10.0 miCalmClear
3:55 PM46.4 °F32.0 °F57 %30.04 in10.0 miCalmClear
4:15 PM46.4 °F32.0 °F57 %30.05 in10.0 miCalmClear
4:35 PM44.6 °F32.0 °F61 %30.05 in10.0 miCalmClear
4:55 PM41.0 °F35.6 °F81 %30.06 in10.0 miCalmClear
5:15 PM41.0 °F35.6 °F81 %30.07 in10.0 miCalmPartly Cloudy
5:35 PM39.2 °F35.6 °F87 %30.07 in9.0 miCalmClear
5:55 PM37.4 °F33.8 °F87 %30.08 in10.0 miCalmClear
6:15 PM37.4 °F33.8 °F87 %30.09 in10.0 miCalmClear
6:35 PM37.4 °F32.0 °F81 %30.09 in10.0 miCalmClear
6:55 PM37.4 °F32.0 °F81 %30.10 in10.0 miCalmClear
7:15 PM35.6 °F32.0 °F87 %30.10 in10.0 miCalmClear
7:35 PM35.6 °F32.0 °F87 %30.11 in10.0 miNorthClear
7:55 PM35.6 °F32.0 °F87 %30.12 in10.0 miCalmClear
8:15 PM35.6 °F32.0 °F87 %30.12 in10.0 miCalmClear
8:55 PM33.8 °F32.0 °F93 %30.14 in10.0 miCalmClear
9:15 PM33.8 °F32.0 °F93 %30.15 in10.0 miCalmClear
9:35 PM32.0 °F32.0 °F100 %30.15 in10.0 miCalmClear
9:55 PM33.8 °F33.8 °F100 %30.16 in10.0 miCalmClear
10:15 PM33.8 °F32.0 °F93 %30.17 in10.0 miCalmClear
10:35 PM33.8 °F33.8 °F100 %30.17 in10.0 miCalmPartly Cloudy
10:55 PM35.6 °F33.8 °F93 %30.17 in10.0 miCalmPartly Cloudy
11:15 PM33.8 °F32.0 °F93 %30.18 in10.0 miCalmClear
11:35 PM35.6 °F35.6 °F100 %30.18 in10.0 miCalmClear
11:55 PM35.6 °F33.8 °F93 %30.19 in10.0 miCalmPartly Cloudy
Hourly data recorded from CZBB, located miles away from Vancouver, British Columbia







STORIES FROM OUR PARTNERS